FLOCK 4Q 11

导读 | 星芒AI

FLOCK 4Q 11 是由 Planet Labs 运营的 Dove 系列小型地球观测卫星之一,属于 Flock 4Q 群组。该卫星主要用于高分辨率光学成像,支持全球范围内的每日重访能力,广泛应用于环境监测、农业分析、灾害评估等领域。卫星采用标准化设计,具备低成本、快速部署的特点,是构建大规模遥感星座的重要组成部分。FLOCK 4Q 11 于 2017 年发射,运行在低地球轨道,为用户提供频繁、实时的地球影像数据。

基本信息
目录编号:
58273
目录名称:
FLOCK 4Q 11
国际标识:
2023-174T
轨道中心:
EARTH
卫星名称:
FLOCK 4Q 11
卫星全名:
--
卫星状态:
在轨 (已飞行711 天)
发射日期:
2023-11-11 UTC
国别 :
美国 (US)
星等 :
--
轨道信息
数据来源 国际轨道数据
星历时间: 2025-10-22T12:07:38+0800
10小时前
查看轨道信息
半长轴: 6830.584km
偏心率: 0.0006531
轨道倾角: 97.409°
近地点辐角 298.958°
升交点赤经 14.902°
平近点角 61.101°
近地点: 447.987km
远地点: 456.911km
周期: 93.637分钟
每日圈数: 15.378575
详细信息
使用方式:
暂无
2D轨道图
3D轨道图
轨道高度分析图
轨道倾角分析图
轨道综合分析图
查看轨道综合分析图